This demonstration page uses our WeatherBlox Daily Observations layout. Learn more.

Left ArrowRight Arrow

34.74481, -87.66753

Hourly Observations for June 12, 2018

Temp ( °F °C ) Dew Point ( °F °C ) Humidity (%) Winds ( mph kmh ) Pressure ( in mb ) Visibility ( mi km ) Precip ( " mm )
12:53 am 00:53 Clear 73 22.8 70 21.1 90 90 ESE 6 9 29.96 1014 10 16 0.00 0.00
1:53 am 01:53 Clear 72 22.2 70 21.1 94 94 SE 5 7 29.95 1014 10 16 0.00 0.00
3:53 am 03:53 Clear 71 21.7 69 20.6 94 94 SE 5 7 29.95 1014 10 16 0.00 0.00
4:53 am 04:53 Clear 70 21.1 68 20 93 93 E 3 6 29.97 1015 10 16 0.00 0.00
5:53 am 05:53 Partly Cloudy 70 21.1 68 20 93 93 Calm 30.00 1016 10 16 0.00 0.00
6:53 am 06:53 Sunny 72 22.2 69 20.6 91 91 S 3 6 30.01 1016 10 16 0.00 0.00
7:33 am 07:33 Mostly Cloudy 74 23.3 70 21.1 88 88 S 6 9 30.00 1016 10 16 0.00 0.00
7:53 am 07:53 Partly Cloudy 75 23.9 70 21.1 84 84 S 5 7 30.03 1017 10 16 0.00 0.00
8:53 am 08:53 Mostly Sunny 77 25 70 21.1 79 79 VRB 7 11 30.05 1018 10 16 0.00 0.00
9:44 am 09:44 Mostly Cloudy 81 27.2 69 20.6 67 67 SW 7 11 30.03 1017 10 16 0.00 0.00
9:53 am 09:53 Cloudy 81 27.2 69 20.6 67 67 SSW 6 9 30.04 1017 10 16 0.00 0.00
10:42 am 10:42 Mostly Cloudy 82 27.8 69 20.6 65 65 S 8 13 30.03 1017 10 16 0.00 0.00
10:53 am 10:53 Mostly Cloudy 83 28.3 69 20.6 63 63 SW 9 15 30.04 1017 10 16 0.00 0.00
11:22 am 11:22 Mostly Cloudy 84 28.9 71 21.7 65 65 VRB 6 9 30.03 1017 10 16 0.00 0.00
11:36 am 11:36 Mostly Cloudy 85 29.4 71 21.7 63 63 WSW 10 17 30.03 1017 10 16 0.00 0.00
11:53 am 11:53 Mostly Cloudy 84 28.9 71 21.7 65 65 SW 9 15 30.02 1017 10 16 0.00 0.00
12:18 pm 12:18 Partly Cloudy 86 30 72 22.2 63 63 SW 7 11 30.00 1016 10 16 0.00 0.00
12:27 pm 12:27 Mostly Cloudy 85 29.4 72 22.2 65 65 SSW 7 11 30.00 1016 10 16 0.00 0.00
12:53 pm 12:53 Mostly Cloudy 85 29.4 72 22.2 65 65 S 5 7 30.00 1016 10 16 0.00 0.00
1:15 pm 13:15 Cloudy with Rain 81 27.2 74 23.3 79 79 NNE 9 15 30.00 1016 9 14 0.04 1.02
1:24 pm 13:24 Cloudy with Strong Thunderstorms 78 25.6 74 23.3 87 87 ENE 12 19 29.97 1015 5 8 0.11 2.79
1:40 pm 13:40 Mostly Cloudy with Thunderstorms 78 25.6 74 23.3 87 87 E 9 15 29.97 1015 10 16 0.11 2.79
1:53 pm 13:53 Mostly Cloudy with Nearby Thunderstorms 79 26.1 73 22.8 82 82 E 3 6 29.98 1015 10 16 0.11 2.79
2:14 pm 14:14 Mostly Sunny 80 26.7 74 23.3 82 82 ENE 6 9 29.97 1015 10 16 0.00 0.00
2:53 pm 14:53 Sunny 84 28.9 76 24.4 77 77 E 8 13 29.97 1015 10 16 0.00 0.00
3:53 pm 15:53 Mostly Cloudy with Nearby Thunderstorms 83 28.3 77 25 82 82 E 6 9 29.95 1014 10 16 0.14 3.56
4:50 pm 16:50 Cloudy with Thunderstorms 81 27 73 23 79 79 E 5 7 29.94 1014 10 16 0.00 0.00
4:53 pm 16:53 Cloudy with Thunderstorms 80 26.7 73 22.8 79 79 E 7 11 29.95 1014 10 16 0.00 0.00
5:11 pm 17:11 Mostly Cloudy 79 26.1 71 21.7 77 77 NE 6 9 29.94 1014 10 16 0.00 0.00
5:53 pm 17:53 Mostly Sunny 76 24.4 70 21.1 82 82 ENE 6 9 29.95 1014 10 16 0.00 0.00
6:00 pm 18:00 Partly Cloudy with Nearby Thunderstorms 76 24.4 70 21.1 82 82 ENE 6 9 29.94 1014 10 16 0.00 0.00
6:11 pm 18:11 Partly Cloudy with Thunderstorms 76 24.4 70 21.1 82 82 ENE 7 11 29.94 1014 10 16 0.00 0.00
6:34 pm 18:34 Mostly Cloudy with Strong Thunderstorms 74 23.3 71 21.7 91 91 VRB 7 11 29.94 1014 2 3 0.17 4.32
6:44 pm 18:44 Cloudy with Strong Thunderstorms 75 23.9 72 22.2 90 90 NNW 6 9 29.94 1014 4 6 0.23 5.84
6:53 pm 18:53 Cloudy with Strong Thunderstorms 74 23.3 72 22.2 94 94 E 6 9 29.96 1014 5 8 0.26 6.60
7:06 pm 19:06 Cloudy with Nearby Thunderstorms 75 23.9 73 22.8 94 94 ESE 8 13 29.97 1015 10 16 0.01 0.25
7:44 pm 19:44 Mostly Cloudy with Light Rain 75 23.9 71 21.7 88 88 SE 6 9 29.97 1015 10 16 0.01 0.25
7:53 pm 19:53 Partly Cloudy 75 23.9 71 21.7 88 88 E 5 7 29.98 1015 10 16 0.01 0.25
8:53 pm 20:53 Mostly Clear 74 23.3 72 22.2 94 94 SSE 6 9 29.99 1016 10 16 0.00 0.00
9:53 pm 21:53 Clear 73 22.8 72 22.2 96 96 Calm 30.01 1016 10 16 0.00 0.00
10:53 pm 22:53 Mostly Cloudy 76 24.4 70 21.1 82 82 SW 5 7 30.02 1017 10 16 0.00 0.00
11:12 pm 23:12 Cloudy 75 23.9 69 20.6 82 82 NW 17 28 30.03 1017 10 16 0.00 0.00
11:53 pm 23:53 Mostly Cloudy 73 22.8 70 21.1 90 90 Calm 30.04 1017 10 16 0.00 0.03

Powered by AerisWeather